| time (UTC) | temp C | wind direction | speed KPH | gust KPH | rain 1hr cm | rain 24hr cm | rain mn cm | humidity % | barometer mb |
| 20260505101228 | 17 | 45 | 1.6 | 4.8 | 0.00 | 0.00 | 0.00 | 47 | 1020.1 |
| 20260505100230 | 18 | 90 | 0.0 | 1.6 | 0.00 | 0.00 | 0.00 | 44 | 1020.1 |
| 20260505095233 | 18 | 180 | 0.0 | 1.6 | 0.00 | 0.00 | 0.00 | 41 | 1020.0 |
| 20260505094235 | 19 | 135 | 0.0 | 1.6 | 0.00 | 0.00 | 0.00 | 38 | 1019.9 |
| 20260505093237 | 20 | 135 | 0.0 | 3.2 | 0.00 | 0.00 | 0.00 | 36 | 1019.7 |
| 20260505092240 | 20 | 135 | 0.0 | 3.2 | 0.00 | 0.00 | 0.00 | 31 | 1019.6 |
| 20260505091242 | 20 | 225 | 0.0 | 3.2 | 0.00 | 0.00 | 0.00 | 30 | 1019.5 |
| 20260505090245 | 20 | 225 | 0.0 | 3.2 | 0.00 | 0.00 | 0.00 | 29 | 1019.4 |
| 20260505085247 | 20 | 135 | 1.6 | 3.2 | 0.00 | 0.00 | 0.00 | 29 | 1019.2 |
| 20260505084250 | 20 | 135 | 0.0 | 8.0 | 0.00 | 0.00 | 0.00 | 29 | 1019.1 |
| 20260505083252 | 20 | 45 | 1.6 | 6.4 | 0.00 | 0.00 | 0.00 | 29 | 1019.2 |
| 20260505082254 | 21 | 135 | 3.2 | 8.0 | 0.00 | 0.00 | 0.00 | 28 | 1019.1 |
| 20260505081256 | 21 | 135 | 3.2 | 8.0 | 0.00 | 0.00 | 0.00 | 29 | 1019.0 |
| 20260505080259 | 21 | 180 | 1.6 | 6.4 | 0.00 | 0.00 | 0.00 | 28 | 1018.9 |
| 20260505075303 | 21 | 180 | 1.6 | 8.0 | 0.00 | 0.00 | 0.00 | 30 | 1018.8 |
| 20260505074303 | 21 | 135 | 4.8 | 16.1 | 0.00 | 0.00 | 0.00 | 29 | 1018.5 |
| 20260505073306 | 22 | 90 | 3.2 | 8.0 | 0.00 | 0.00 | 0.00 | 30 | 1018.5 |
| 20260505072308 | 21 | 90 | 6.4 | 12.9 | 0.00 | 0.00 | 0.00 | 30 | 1018.5 |
| 20260505071310 | 22 | 135 | 1.6 | 14.5 | 0.00 | 0.00 | 0.00 | 29 | 1018.6 |
| 20260505070313 | 22 | 270 | 6.4 | 12.9 | 0.00 | 0.00 | 0.00 | 29 | 1018.5 |
| 20260505065315 | 21 | 113 | 6.4 | 12.9 | 0.00 | 0.00 | 0.00 | 27 | 1018.4 |
| 20260505064317 | 22 | 90 | 3.2 | 17.7 | 0.00 | 0.00 | 0.00 | 30 | 1018.5 |
| 20260505063320 | 22 | 90 | 8.0 | 14.5 | 0.00 | 0.00 | 0.00 | 29 | 1018.3 |
| 20260505062322 | 22 | 45 | 6.4 | 20.9 | 0.00 | 0.00 | 0.00 | 29 | 1018.3 |
| 20260505061325 | 23 | 90 | 3.2 | 16.1 | 0.00 | 0.00 | 0.00 | 28 | 1018.3 |
| 20260505060327 | 23 | 45 | 6.4 | 22.5 | 0.00 | 0.00 | 0.00 | 29 | 1018.2 |
| 20260505055329 | 22 | 135 | 6.4 | 20.9 | 0.00 | 0.00 | 0.00 | 27 | 1018.3 |
| 20260505054331 | 23 | 90 | 6.4 | 17.7 | 0.00 | 0.00 | 0.00 | 28 | 1018.2 |
| 20260505053333 | 25 | 68 | 1.6 | 12.9 | 0.00 | 0.00 | 0.00 | 26 | 1018.1 |
| 20260505052336 | 26 | 225 | 3.2 | 12.9 | 0.00 | 0.00 | 0.00 | 25 | 1018.2 |
| 20260505051338 | 26 | 225 | 1.6 | 12.9 | 0.00 | 0.00 | 0.00 | 23 | 1018.2 |
| 20260505050340 | 26 | 225 | 4.8 | 17.7 | 0.00 | 0.00 | 0.00 | 24 | 1018.4 |
| 20260505041351 | 26 | 270 | 3.2 | 12.9 | 0.00 | 0.00 | 0.00 | 28 | 1019.1 |
| 20260505040354 | 25 | 135 | 3.2 | 12.9 | 0.00 | 0.00 | 0.00 | 28 | 1019.1 |
| 20260505035356 | 24 | 45 | 3.2 | 12.9 | 0.00 | 0.00 | 0.00 | 28 | 1019.2 |
| 20260505034359 | 25 | 90 | 3.2 | 12.9 | 0.00 | 0.00 | 0.00 | 28 | 1019.3 |
| 20260505033401 | 24 | 45 | 0.0 | 14.5 | 0.00 | 0.00 | 0.00 | 27 | 1019.3 |
| 20260505032403 | 23 | 90 | 3.2 | 19.3 | 0.00 | 0.00 | 0.00 | 29 | 1019.6 |
| 20260505031406 | 22 | 90 | 6.4 | 16.1 | 0.00 | 0.00 | 0.00 | 29 | 1019.6 |
| 20260505030408 | 23 | 90 | 4.8 | 17.7 | 0.00 | 0.00 | 0.00 | 26 | 1019.6 |
| 20260505025410 | 22 | 158 | 4.8 | 11.3 | 0.00 | 0.00 | 0.00 | 25 | 1019.7 |
| 20260505024413 | 24 | 90 | 4.8 | 12.9 | 0.00 | 0.00 | 0.00 | 24 | 1019.7 |
| 20260505023415 | 25 | 135 | 6.4 | 17.7 | 0.00 | 0.00 | 0.00 | 22 | 1019.9 |
| 20260505022417 | 24 | 180 | 3.2 | 17.7 | 0.00 | 0.00 | 0.00 | 20 | 1019.8 |
| 20260505021420 | 23 | 45 | 6.4 | 17.7 | 0.00 | 0.00 | 0.00 | 21 | 1019.8 |
| 20260505020422 | 23 | 90 | 6.4 | 14.5 | 0.00 | 0.00 | 0.00 | 22 | 1019.9 |
| 20260505015424 | 25 | 135 | 6.4 | 17.7 | 0.00 | 0.00 | 0.00 | 18 | 1020.0 |
| 20260505014426 | 25 | 0 | 1.6 | 11.3 | 0.00 | 0.00 | 0.00 | 17 | 1020.1 |
| 20260505013429 | 25 | 90 | 4.8 | 12.9 | 0.00 | 0.00 | 0.00 | 19 | 1020.1 |
| 20260505012431 | 25 | 0 | 1.6 | 4.8 | 0.00 | 0.00 | 0.00 | 21 | 1020.1 |
| 20260505011433 | 24 | 90 | 3.2 | 11.3 | 0.00 | 0.00 | 0.00 | 22 | 1020.2 |
| 20260505010436 | 23 | 45 | 0.0 | 8.0 | 0.00 | 0.00 | 0.00 | 24 | 1020.3 |
| 20260505005438 | 23 | 270 | 1.6 | 8.0 | 0.00 | 0.00 | 0.00 | 24 | 1020.2 |
| 20260505004440 | 23 | 0 | 1.6 | 9.7 | 0.00 | 0.00 | 0.00 | 29 | 1020.3 |
| 20260505003442 | 22 | 90 | 0.0 | 4.8 | 0.00 | 0.00 | 0.00 | 34 | 1020.3 |
| 20260505002445 | 21 | 90 | 0.0 | 3.2 | 0.00 | 0.00 | 0.00 | 37 | 1020.3 |
| 20260505001447 | 21 | 270 | 0.0 | 3.2 | 0.00 | 0.00 | 0.00 | 37 | 1020.3 |
| 20260505000449 | 20 | 270 | 3.2 | 6.4 | 0.00 | 0.00 | 0.00 | 44 | 1020.4 |
| 20260504235451 | 19 | 270 | 1.6 | 8.0 | 0.00 | 0.00 | 0.00 | 48 | 1020.5 |
| 20260504234454 | 18 | 203 | 0.0 | 8.0 | 0.00 | 0.00 | 0.00 | 55 | 1020.6 |
| 20260504233456 | 17 | 270 | 6.4 | 12.9 | 0.00 | 0.00 | 0.00 | 59 | 1020.4 |
| 20260504232459 | 16 | 315 | 4.8 | 12.9 | 0.00 | 0.00 | 0.00 | 64 | 1020.5 |
| 20260504231501 | 15 | 225 | 6.4 | 12.9 | 0.00 | 0.00 | 0.00 | 68 | 1020.5 |
| 20260504230503 | 15 | 315 | 3.2 | 17.7 | 0.00 | 0.00 | 0.00 | 69 | 1020.6 |
| 20260504225506 | 14 | 270 | 6.4 | 12.9 | 0.00 | 0.00 | 0.00 | 73 | 1020.7 |
| 20260504224508 | 13 | 225 | 4.8 | 14.5 | 0.00 | 0.00 | 0.00 | 77 | 1020.6 |
| 20260504223510 | 12 | 270 | 6.4 | 12.9 | 0.00 | 0.00 | 0.00 | 80 | 1020.7 |
| 20260504222512 | 12 | 225 | 4.8 | 12.9 | 0.00 | 0.00 | 0.00 | 81 | 1020.8 |
| 20260504221515 | 12 | 225 | 4.8 | 11.3 | 0.00 | 0.00 | 0.00 | 83 | 1020.9 |
| 20260504220517 | 12 | 225 | 4.8 | 9.7 | 0.00 | 0.00 | 0.00 | 85 | 1020.7 |
| 20260504215519 | 12 | 225 | 4.8 | 11.3 | 0.00 | 0.00 | 0.00 | 88 | 1020.7 |
| 20260504214521 | 11 | 270 | 4.8 | 9.7 | 0.00 | 0.00 | 0.00 | 92 | 1020.7 |
| 20260504213524 | 11 | 270 | 3.2 | 9.7 | 0.00 | 0.00 | 0.00 | 96 | 1020.9 |
| 20260504212526 | 10 | 270 | 4.8 | 11.3 | 0.00 | 0.00 | 0.00 | 99 | 1020.9 |
| 20260504211528 | 10 | 270 | 3.2 | 8.0 | 0.00 | 0.00 | 0.00 | 99 | 1020.8 |
| 20260504210530 | 10 | 315 | 3.2 | 6.4 | 0.00 | 0.00 | 0.00 | 99 | 1020.7 |
| 20260504205533 | 9 | 0 | 0.0 | 3.2 | 0.00 | 0.00 | 0.00 | 99 | 1020.5 |
| 20260504204535 | 9 | 315 | 0.0 | 1.6 | 0.00 | 0.00 | 0.00 | 99 | 1020.4 |
| 20260504203537 | 9 | 315 | 0.0 | 8.0 | 0.00 | 0.00 | 0.00 | 99 | 1020.4 |
| 20260504202540 | 9 | 270 | 3.2 | 9.7 | 0.00 | 0.00 | 0.00 | 99 | 1020.4 |
| 20260504201542 | 9 | 225 | 3.2 | 8.0 | 0.00 | 0.00 | 0.00 | 99 | 1020.2 |
| 20260504200544 | 9 | 315 | 0.0 | 3.2 | 0.00 | 0.00 | 0.00 | 99 | 1020.2 |
| 20260504195547 | 9 | 0 | 0.0 | 3.2 | 0.00 | 0.00 | 0.00 | 99 | 1020.0 |
| 20260504194549 | 9 | 225 | 0.0 | 1.6 | 0.00 | 0.00 | 0.00 | 99 | 1019.9 |
| 20260504193552 | 9 | 225 | 0.0 | 1.6 | 0.00 | 0.00 | 0.00 | 99 | 1019.9 |
| 20260504192554 | 9 | 270 | 0.0 | 1.6 | 0.00 | 0.00 | 0.00 | 99 | 1019.8 |
| 20260504191557 | 9 | 0 | 0.0 | 3.2 | 0.00 | 0.00 | 0.00 | 99 | 1019.7 |
| 20260504190559 | 9 | 225 | 0.0 | 1.6 | 0.00 | 0.00 | 0.00 | 99 | 1019.7 |
| 20260504185602 | 9 | 45 | 0.0 | 3.2 | 0.00 | 0.00 | 0.00 | 99 | 1019.6 |
| 20260504184604 | 9 | 225 | 0.0 | 0.0 | 0.00 | 0.00 | 0.00 | 99 | 1019.4 |
| 20260504183606 | 9 | 225 | 0.0 | 0.0 | 0.00 | 0.00 | 0.00 | 99 | 1018.8 |
| 20260504182609 | 10 | 225 | 0.0 | 0.0 | 0.00 | 0.00 | 0.00 | 99 | 1018.7 |
| 20260504181611 | 10 | 225 | 0.0 | 0.0 | 0.00 | 0.00 | 0.00 | 99 | 1018.6 |
| 20260504180613 | 10 | 180 | 0.0 | 0.0 | 0.00 | 0.00 | 0.00 | 99 | 1018.4 |
| 20260504175616 | 10 | 225 | 0.0 | 0.0 | 0.00 | 0.00 | 0.00 | 99 | 1018.2 |
| 20260504174618 | 10 | 225 | 0.0 | 0.0 | 0.00 | 0.00 | 0.00 | 99 | 1018.2 |
| 20260504173620 | 10 | 45 | 0.0 | 3.2 | 0.00 | 0.00 | 0.00 | 99 | 1018.1 |
| 20260504172623 | 10 | 135 | 0.0 | 3.2 | 0.00 | 0.00 | 0.00 | 99 | 1018.0 |
| 20260504171625 | 10 | 135 | 0.0 | 1.6 | 0.00 | 0.00 | 0.00 | 99 | 1018.0 |
| 20260504170628 | 10 | 225 | 0.0 | 1.6 | 0.00 | 0.00 | 0.00 | 99 | 1017.9 |
| 20260504150656 | 12 | 0 | 0.0 | 1.6 | 0.00 | 0.00 | 0.00 | 87 | 1017.0 |
| 20260504140709 | 13 | 45 | 0.0 | 1.6 | 0.00 | 0.00 | 0.00 | 83 | 1016.7 |
| 20260504130723 | 13 | 180 | 0.0 | 1.6 | 0.00 | 0.00 | 0.00 | 71 | 1016.3 |